Погода в Ломоносове

Погода в Ломоносове : погода сейчас, прогноз погоды и архив. Всё, что Вы хотите узнать о погоде в Ломоносове!

Поиск расширенной информации на нашем сайте:

Другие новости

Новости СМИ2

Главная страница сайта

Новости сайта

03.07.2017

Напоминаем, что на нашем специализированном сайте Метеоцентр.Азия вы можете получить высокодетализированные автоматические прогнозы погоды по пунктам России, СНГ и мира в авиационном формате (включающие направление и скорость ветра, видимость, явления погоды, количество и форму облачности, нижнюю и верхнюю границу облачности).


Погода в Ломоносове - сегодня

Время (UTC), дата Ветер
(°,м/с) 
Видим.   Явления Облачность Т
(°С)
Тd
(°С)
f(%) Тe
(°С)
Pmin
(гПа)
dP
(гПа)
Po
(мм)
O2
(г/м3)
Тmin Tmax R s Состояние
почвы
21 11.10.17 260 (З) 10 км    10/5 300 м кучево-дожд., средняя 
[Cb calv|Ac As]
+7.9 +6.8 93 +7  999.6  1.4  749  292           
00 12.10.17 310 (СЗ) 4{11}  20000 м    10/4 300 м средняя 
[Sc|Ac As]
+7.3 +4.8 84 +6  1001.3  1.7  751  294           
03 12.10.17 260 (З) 20000 м    10/3 300 м средняя 
[Sc|Ac As]
+7.5 +4 78 +7  1002.3  751  294  +6         
09 12.10.17 270 (З) 20000 м    3/3 600 м 
[Sc]
+9 +3.7 69 +8  1003.7  0.3  752  293           
12 12.10.17 320 (СЗ) 20000 м    9/9 600 м верхняя 
[Sc|Ci fib]
+8.8 +4.8 76 +10  1003.5  -0.2  752  293           
21 12.10.17 100 (В) 4000 м  слаб. дождь  10/10 300 м 
[Frnb|Ns]
+7.8 +6.7 93 +7  998.7  -2.4  749  292           
09 13.10.17 040 (СВ) 4000 м  слаб. дождь  10/10 300 м 
[Frnb|Ns]
+7.7 +6.6 93 +6  1001.6  2.4  751  293           
15 13.10.17 020 (С) 4{10}  20000 м    8/4 600 м средняя 
[Sc|Ac trans]
+8.3 +3.4 71 +7  1006.9  2.7  755  295           
21 13.10.17 010 (С) 20000 м    3/0 средняя 
[Ac trans]
+6.5 +4.9 89 +6  1009.7  1.2  757  297           
00 14.10.17 340 (С) 20000 м    9/0 средняя 
[Ac trans]
+6.1 +4.7 91 +7  1010.2  0.5  757  298           
03 14.10.17 340 (С) 20000 м    10/5 600 м средняя 
[Sc|Ac As]
+7.2 +5.6 90 +7  1010.9  0.7  758  297  +5.6         
09 14.10.17 350 (С) 10 км    10/0 средняя 
[Ac As]
+8.5 +3.7 72 +10  1011.8  0.2  758  296           
12 14.10.17 260 (З) 10 км    9/0 средняя 
[Ac und]
+9.1 +3.3 67 +10  1011  -0.8  758  295           
15 14.10.17 230 (ЮЗ) 10 км    9/0 средняя 
[Ac trans]
+7.5 +4.5 81 +8  1009.8  -1.2  757  296           
21 14.10.17 140 (ЮВ) 4000 м  слаб. дождь  10/10 300 м 
[Ns]
+7.1 +5.5 90 +7  1004.7  -2.8  753  295           
00 15.10.17 130 (ЮВ) 4000 м  слаб. дождь  10/10 300 м 
[Ns]
+6.4 +5.7 95 +5  1001.2  -3.5  750  295           
09 15.10.17 330 (СЗ) 20000 м    10/8 300 м средняя 
[Sc|Ac trans]
+7.1 +5.1 87 +8  1008  3.4  756  296           
12 15.10.17 300 (СЗ) 20000 м    8/6 600 м средняя 
[Sc|Ac und]
+7.4 +4.2 80 +8  1010.5  2.5  757  296           
15 15.10.17 290 (З) 20000 м    10/4 600 м средняя, верхняя 
[Sc|Ac trans|Ci fib]
+6.3 +3.2 81 +7  1012.6  2.1  759  298           
21 15.10.17 010 (С) 20000 м    8/8 600 м 
[Sc]
+5.9 +4.5 91 +7  1014.7  0.8  761  299           
00 16.10.17 180 (Ю) 20000 м    8/8 600 м 
[Sc]
+6.9 +5.3 90 +8  1014.8  0.1  761  298           
03 16.10.17 120 (ЮВ) 20000 м    10/0 средняя 
[Ac As]
+6.5 +5.8 95 +7  1014.1  -0.7  760  298  +5.5         
09 16.10.17 140 (ЮВ) 20000 м  {дождь}  10/0 средняя 
[Ac As]
+8.1 +6.4 89 +7  1009.4  -2.6  757  295           
21 16.10.17 280 (З) 4{13}  20000 м    ясно 
+10 +7.3 83 +9  1006.4  2.6  754  292           
00 17.10.17 270 (З) 6-10{11}  20000 м    ясно 
+9 +5.5 79 +7  1008.4  756  294           
Время (UTC), дата Ветер
(°,м/с) 
Видим.   Явления Облачность Т
(°С)
Тd
(°С)
f(%) Тe
(°С)
Pmin
(гПа)
dP
(гПа)
Po
(мм)
O2
(г/м3)
Тmin Tmax R s Состояние
почвы

Для получения пояснительной информации подведите курсор к названию столбца.

ПОГОДА в Ломоносове - архив

Всё, что Вы хотите узнать о погоде в Ломоносове - удобно и подробно!

Выберите нужную дату (начиная с 1 января 2015* года) и нажмите кнопку "Найти".
Будут отображены архивные сводки погоды по пункту Ломоносов, начиная с указанной даты.


Отображать данные в формате CSV (для использования в таблицах Excel)


Внимание! Наш архив погоды предназначен исключительно для личного некоммерческого использования в познавательных целях. Если Вам необходимы официальные справки о состоянии погоды (для производственных, юридических, коммерческих и т.п. целей), обращайтесь в органы Росгидромета.

*Примечание: данная дата относится к архиву по метеостанциям СССР (Россия, СНГ, Балтия).
Архив по метеостанциям Зарубежной Европы и Азии (кроме Китая) хранится 10 дней, по другим регионам земного шара (Китай, Африка, Америка, Австралия, Океания) - 1 день.

Ломоносов - район местоположения метеостанции


Название, широта, долгота, высота метеостанции:
Ломоносов 59.9°ш. 29.8°д. 2 м над ур. моря [Российская Федерация]

Дополнительная информация

В oтличие oт бoльшинства пoгoдных сайтoв мы публикуем пoдрoбную метеoинфoрмацию в детальнoм прoфессиoнальнoм фoрмате.

Характеристики температуры и влажнoсти вoздуха измеряются на высoте 2 м в тени вдали oт зданий и деревьев.
Скoрoсть ветра измеряется на высoте 10 м (на урoвне рoста челoвека скoрoсть ветра ниже в 1.5-2 раза). Если метеoстанция нахoдится в гoрoде или в лесу, тo скoрoсть ветра занижена на 2-4 м/с пo сравнению с oткрытым местoм. Скoрoсть ветра над акватoриями крупных рек и oзёр, а также на вершинах хoлмoв на 2-5 м/с выше, чем в oбычных услoвиях.
Атмoсфернoе давление в разных тoчках местнoсти мoжет значительнo oтличаться oт давления на метеoстанции, в зависимoсти oт услoвий рельефа (при пoдъёме на 10 м давление пoнижается примернo на 1 мм рт.ст.).